Date,TemperatureHighF,TemperatureAvgF,TemperatureLowF,DewpointHighF,DewpointAvgF,DewpointLowF,HumidityHigh,HumidityAvg,HumidityLow,PressureMaxIn,PressureMinIn,WindSpeedMaxMPH,WindSpeedAvgMPH,GustSpeedMaxMPH,PrecipitationSumIn
2013-8-1,85.3,71.8,64.1,71.3,66.8,62.6,98,86,59,29.94,29.85,8,1,13,0.04
2013-8-2,82.9,70.7,58.4,67.8,63.3,57.6,98,80,51,29.99,29.90,7,1,11,0.01
2013-8-3,76.6,69.2,64.4,69.4,66.4,63.4,98,91,76,29.97,29.93,5,0,7,0.01
2013-8-4,79.9,68.8,57.3,65.7,62.0,55.5,98,81,49,30.08,29.96,7,1,14,0.01
2013-8-5,81.4,65.7,52.4,64.1,57.7,51.5,98,79,43,30.10,29.97,6,0,8,0.00
2013-8-6,85.8,71.5,59.1,69.6,62.8,57.9,97,77,48,29.99,29.92,5,0,7,0.00
2013-8-7,88.0,74.7,63.0,77.4,69.8,62.1,98,86,67,29.95,29.88,5,0,11,0.01
2013-8-8,81.6,73.8,69.7,75.9,71.8,68.1,98,94,77,29.95,29.88,6,0,8,1.75
2013-8-9,83.0,74.6,70.6,76.1,72.2,69.8,98,93,77,29.99,29.89,9,1,13,0.31
2013-8-10,86.4,74.9,69.1,73.4,70.1,66.7,98,87,57,30.07,29.99,4,0,7,0.10
2013-8-11,89.2,75.2,66.8,73.6,69.1,66.1,98,84,50,30.07,29.98,5,0,8,0.00
2013-8-12,85.1,73.6,65.6,74.5,69.9,64.7,98,89,62,30.03,29.86,3,0,6,0.00
2013-8-13,81.0,73.0,63.3,72.4,68.6,58.3,97,87,72,29.94,29.80,8,2,17,0.26
2013-8-14,73.5,61.3,50.3,58.2,53.7,49.2,97,78,46,30.14,29.95,8,1,10,0.00
2013-8-15,78.5,60.9,47.6,60.8,54.1,46.7,98,81,48,30.17,30.05,5,0,8,0.01
2013-8-16,83.0,66.1,51.9,65.5,58.7,51.0,98,80,48,30.11,30.06,4,0,6,0.00
2013-8-17,78.0,66.3,54.7,66.5,61.1,53.8,98,85,60,30.18,30.11,4,0,6,0.01
2013-8-18,69.9,66.4,63.3,69.0,65.6,62.6,98,97,95,30.17,30.09,3,0,3,0.59
2013-8-19,83.7,71.5,63.0,68.9,66.4,61.8,98,86,55,30.12,30.04,6,0,8,0.02
2013-8-20,86.5,70.0,57.8,69.8,63.5,57.2,98,82,52,30.17,30.08,6,0,7,0.01
2013-8-21,86.3,70.6,61.7,74.7,67.3,60.8,98,90,65,30.15,30.04,4,0,8,0.14
2013-8-22,85.0,70.3,60.7,75.7,67.3,59.9,98,91,69,30.12,29.98,7,0,14,0.08
2013-8-23,84.1,71.5,64.6,71.3,67.4,63.4,98,88,61,30.10,29.97,6,0,9,0.19
2013-8-24,83.9,69.8,59.8,68.0,63.1,59.1,98,82,48,30.26,30.10,4,0,6,0.01
2013-8-25,86.3,69.8,58.0,66.8,62.1,57.1,98,79,44,30.35,30.22,5,0,6,0.00
2013-8-26,88.0,71.3,56.2,71.2,64.3,55.3,98,81,49,30.26,30.05,7,0,7,0.01
2013-8-27,86.8,74.4,66.4,76.4,70.8,65.5,98,89,68,30.05,29.93,7,1,10,0.00
2013-8-28,85.9,76.2,72.0,77.8,73.8,70.8,97,92,75,29.95,29.80,8,1,16,1.33
2013-8-29,89.1,77.2,70.0,75.4,72.3,68.8,97,86,59,29.97,29.87,6,1,8,0.00
2013-8-30,88.6,76.1,65.6,75.5,70.4,65.0,98,84,60,29.96,29.82,5,0,8,0.01
2013-8-31,86.1,72.2,65.9,75.2,69.1,65.0,98,91,64,29.91,29.76,14,0,18,0.30